Location: Newark
(55.7083°N, 13.1992°E)
Time: 05:58:57
(UTC+00:00)

Envisat - Visible Passes

Search period start: 04 October 2022 00:00
Search period end: 14 October 2022 00:00
Orbit: 764 x 765 km, 98.2° (Epoch: 03 October)

Date Brightness Start Highest point End Pass type
(mag) Time Alt. Az. Time Alt. Az. Time Alt. Az.
04 Oct 6.2 01:44:30 10° ENE 01:44:40 10° E 01:44:51 10° E visible
04 Oct 3.8 03:19:53 10° NNE 03:24:53 53° E 03:29:51 10° S visible
05 Oct 4.9 02:43:13 10° NNE 02:47:39 29° E 02:52:03 10° SSE visible
05 Oct 3.1 04:22:00 10° N 04:26:59 57° WNW 04:31:57 10° SW visible
06 Oct 5.7 02:07:06 10° NE 02:10:13 16° E 02:13:19 10° ESE visible
06 Oct 3.1 03:44:56 10° NNE 03:50:04 81° ESE 03:55:09 10° SSW visible
07 Oct 4.1 03:08:04 10° NNE 03:12:58 44° E 03:17:48 10° S visible
08 Oct 5.2 02:31:32 10° NE 02:35:40 24° E 02:39:46 10° SE visible
08 Oct 3.0 04:10:05 10° NNE 04:15:10 68° WNW 04:20:12 10° SSW visible
09 Oct 5.9 01:55:48 10° NE 01:58:10 13° E 02:00:31 10° ESE visible
09 Oct 3.4 03:33:04 10° NNE 03:38:10 67° ESE 03:43:14 10° S visible
10 Oct 4.5 02:56:18 10° NNE 03:01:00 36° E 03:05:41 10° SSE visible
10 Oct 3.3 04:35:18 10° N 04:40:09 46° WNW 04:44:59 10° SW visible
11 Oct 5.4 02:19:54 10° NE 02:23:39 20° E 02:27:22 10° SE visible
11 Oct 2.9 03:58:10 10° NNE 04:03:18 81° WNW 04:08:23 10° SSW visible
12 Oct 6.0 01:45:03 10° ENE 01:46:04 11° E 01:47:06 10° E visible
12 Oct 3.7 03:21:14 10° NNE 03:26:16 55° E 03:31:15 10° S visible
13 Oct 4.8 02:44:33 10° NNE 02:49:02 30° E 02:53:29 10° SSE visible
13 Oct 3.1 04:23:22 10° N 04:28:20 54° WNW 04:33:17 10° SW visible
